This is the latest recevied weather packets stored in our database for station/object WP4PW. If no packets are shown the sender has not sent any weather packets the latest 10 day(s).
| Time | Temp. | Humidity | Pressure | Rain* | Wind** | Luminosity | Snow |
|---|---|---|---|---|---|---|---|
| 1777818850 | 30° C | 75% | 1022.5 hPa | 0 mm | - | 718 W/m² | - |
| 1777818546 | 29.44° C | 76% | 1022.5 hPa | 0 mm | - | 707 W/m² | - |
| 1777818244 | 29.44° C | 76% | 1022.6 hPa | 0 mm | - | 697 W/m² | - |
| 1777817940 | 29.44° C | 77% | 1022.7 hPa | 0 mm | - | 683 W/m² | - |
| 1777817637 | 29.44° C | 76% | 1022.4 hPa | 0 mm | - | 674 W/m² | - |
| 1777817334 | 29.44° C | 77% | 1022.6 hPa | 0 mm | - | 661 W/m² | - |
| 1777817031 | 30° C | 76% | 1022.5 hPa | 0 mm | - | 650 W/m² | - |
| 1777816727 | 29.44° C | 76% | 1022.5 hPa | 0 mm | - | 639 W/m² | - |
| 1777816424 | 29.44° C | 76% | 1022.5 hPa | 0 mm | - | 629 W/m² | - |
| 1777816122 | 29.44° C | 75% | 1022.6 hPa | 0 mm | - | 613 W/m² | - |
| 1777815820 | 30° C | 74% | 1022.6 hPa | 0 mm | - | 600 W/m² | - |
| 1777815517 | 29.44° C | 77% | 1022.4 hPa | 0 mm | - | 588 W/m² | - |
| 1777815214 | 29.44° C | 78% | 1022.4 hPa | 0 mm | - | 574 W/m² | - |
| 1777814910 | 28.89° C | 78% | 1022.4 hPa | 0 mm | - | 560 W/m² | - |
| 1777814607 | 28.89° C | 78% | 1022.6 hPa | 0 mm | - | 544 W/m² | - |
| 1777814304 | 28.89° C | 79% | 1022.7 hPa | 0 mm | - | 544 W/m² | - |
| 1777814000 | 29.44° C | 78% | 1022.6 hPa | 0 mm | - | 583 W/m² | - |
| 1777813698 | 28.89° C | 79% | 1022.5 hPa | 0 mm | - | 525 W/m² | - |
| 1777813395 | 29.44° C | 78% | 1022.5 hPa | 0 mm | - | 332 W/m² | - |
| 1777813093 | 28.89° C | 79% | 1022.6 hPa | 0 mm | - | 545 W/m² | - |
| 1777812790 | 28.89° C | 80% | 1022.6 hPa | 0 mm | - | 489 W/m² | - |
| 1777812486 | 28.89° C | 78% | 1022.5 hPa | 0 mm | - | 465 W/m² | - |
| 1777812184 | 28.89° C | 79% | 1022.3 hPa | 0 mm | - | 447 W/m² | - |
| 1777811883 | 28.89° C | 80% | 1022.3 hPa | 0 mm | - | 450 W/m² | - |
| 1777811581 | 28.89° C | 81% | 1022.4 hPa | 0 mm | - | 450 W/m² | - |
* Rain latest hour (hover to see other rain measurements)
** Current wind speed in m/s (hover to see current wind gust speed)